Location: Rio Tanui
(39.9167°N, 8.5167°E)
Time: 02:08:05
(UTC+00:00)

Spot 1 - Pass Details

Date: 08 February 2023
Orbit: 575 x 772 km, 98.8° (Epoch: 01 April)

Event Time Altitude Azimuth Distance (km) Brightness Sun altitude
Exits shadow 18:25:57 14° 21° (NNE) 1,657 6.0 -18.2°
Maximum altitude 18:29:26 67° 103° (ESE) 631 3.8 -18.9°
Drops below altitude 10° 18:33:31 10° 186° (S) 1,909 6.7 -19.6°
Sets 18:35:42 0° 189° (S) 2,825 7.6 -20.1°
